Flag for U.S.A. Weather past 2 weeks in Corvallis, Oregon, U.S.A.

Now
70 °F

More clouds than sun.


Feels Like: 70 °F
Forecast: 56 / 73 °F
Wind: 5 mph from Southeast

Location: Corvallis Municipal

Current Time: Jul 24, 2014 at 2:10:50 PM

Latest Report: Jul 24, 2014 at 1:35 PM


Visibility: 10 mi

Pressure: 30.28 "Hg

Humidity: 57%

Dew point: 54 °F

Location of CorvallisLocation

Historic Weather in Corvallis — Graph

°F

Corvallis temperature yesterday

Maximum temperature yesterday: 68 °F (at 4:35 PM)
Minimum temperature yesterday: 55 °F (at 10:15 PM)
Average temperature yesterday: 60 °F

Past Weeks' High & Low Weather Summary

 TemperatureHumidityPressure
High97 °F (Jul 15, 3:35 PM)100% (Jul 23, 11:55 AM)30.30 "Hg (Jul 23, 11:55 AM)
Low52 °F (Jul 10, 5:55 AM)21% (Jul 10, 4:55 PM)29.84 "Hg (Jul 10, 5:55 PM)
Average69 °F64%30.04 "Hg
* Reported Jul 9 12:35 PM — Jul 24 12:55 PM, Corvallis, Weather by CustomWeather, © 2014

Note: Actual official high and low records may vary slightly from our data, if they occured in-between our weather recording intervals... More about our weather records

Advertising

Corvallis weather history for previous 24 hours

 ConditionsComfort  
Time TempWeatherWind HumidityBarometerVisibility
12:55 PM
Jul 24
72 °FPassing clouds.8 mph53%30.28 "Hg10 mi
12:35 PM70 °FPassing clouds.3 mph57%30.28 "Hg10 mi
12:15 PM68 °FPartly sunny.5 mph60%30.29 "Hg10 mi
11:55 AM68 °FPartly sunny.3 mph60%30.29 "Hg10 mi
11:35 AM66 °FScattered clouds.3 mph64%30.30 "Hg10 mi
11:15 AM66 °FScattered clouds.8 mph73%30.30 "Hg10 mi
10:55 AM64 °FScattered clouds.9 mph78%30.30 "Hg10 mi
10:35 AM61 °FMostly cloudy.10 mph83%30.30 "Hg10 mi
10:15 AM59 °FMostly cloudy.8 mph88%30.30 "Hg4 mi
9:55 AM61 °FMostly cloudy.9 mph77%30.30 "Hg5 mi
9:35 AM61 °FCloudy.10 mph77%30.29 "Hg10 mi
9:15 AM61 °FMostly cloudy.14 mph77%30.29 "Hg10 mi
8:55 AM61 °FOvercast.14 mph77%30.28 "Hg10 mi
8:35 AM59 °FMostly cloudy.12 mph82%30.28 "Hg10 mi
8:15 AM57 °FOvercast.10 mph88%30.28 "Hg10 mi
7:55 AM57 °FMostly cloudy.13 mph88%30.27 "Hg10 mi
7:35 AM57 °FMostly cloudy.13 mph82%30.26 "Hg10 mi
7:15 AM55 °FCloudy.10 mph88%30.26 "Hg10 mi
6:55 AM55 °FMore clouds than sun.12 mph88%30.26 "Hg10 mi
6:35 AM55 °FMostly cloudy.12 mph88%30.25 "Hg10 mi
6:15 AM55 °FOvercast.9 mph88%30.25 "Hg10 mi
5:55 AM55 °FMostly cloudy.13 mph88%30.25 "Hg10 mi
5:35 AM55 °FOvercast.13 mph88%30.24 "Hg10 mi
5:15 AM55 °FMostly cloudy.9 mph88%30.24 "Hg10 mi
4:55 AM55 °FOvercast.8 mph88%30.24 "Hg10 mi
4:35 AM54 °FMostly cloudy.8 mph94%30.24 "Hg10 mi
4:15 AM55 °FPassing clouds.9 mph88%30.23 "Hg10 mi
3:55 AM55 °FOvercast.10 mph88%30.23 "Hg10 mi
3:35 AM55 °FOvercast.12 mph88%30.23 "Hg10 mi
3:15 AM55 °FOvercast.12 mph88%30.23 "Hg10 mi
2:55 AM55 °FMostly cloudy.12 mph88%30.23 "Hg10 mi
2:35 AM55 °FCool.10 mph88%30.23 "HgN/A
2:15 AM54 °FMostly cloudy.8 mph94%30.23 "HgN/A
1:55 AM54 °FPassing clouds.9 mph94%30.22 "HgN/A
1:35 AM54 °FCool.8 mph88%30.21 "HgN/A
1:15 AM55 °FCool.8 mph88%30.21 "HgN/A
12:55 AM55 °FOvercast.7 mph88%30.21 "HgN/A
12:35 AM55 °FOvercast.8 mph88%30.21 "HgN/A
12:15 AM55 °FOvercast.9 mph88%30.21 "HgN/A
11:55 PM
Jul 23
55 °FOvercast.9 mph88%30.20 "HgN/A
11:35 PM55 °FOvercast.9 mph88%30.20 "HgN/A
10:35 PM55 °FPassing clouds.9 mph82%30.20 "HgN/A
10:15 PM55 °FCool.6 mph88%30.21 "HgN/A
9:55 PM57 °FPassing clouds.9 mph82%30.21 "HgN/A
9:35 PM57 °FOvercast.9 mph82%30.20 "Hg10 mi
9:15 PM57 °FPartly sunny.9 mph82%30.20 "Hg10 mi
8:55 PM57 °FPassing clouds.10 mph82%30.19 "Hg10 mi
8:35 PM59 °FScattered clouds.7 mph77%30.19 "Hg10 mi
7:55 PM63 °FPartly sunny.12 mph68%30.18 "Hg10 mi
7:35 PM63 °FOvercast.7 mph68%30.18 "Hg10 mi
7:15 PM63 °FOvercast.12 mph64%30.18 "Hg10 mi
6:55 PM64 °FPartly sunny.10 mph64%30.18 "Hg10 mi
6:15 PM66 °FOvercast.14 mph60%30.18 "Hg10 mi
5:55 PM66 °FPartly sunny.14 mph60%30.18 "Hg10 mi
5:35 PM68 °FPartly sunny.14 mph56%30.17 "Hg10 mi
5:15 PM64 °FOvercast.9 mph64%30.17 "Hg10 mi
4:55 PM66 °FPartly sunny.15 mph64%30.18 "Hg10 mi
4:35 PM68 °FScattered clouds.13 mph60%30.17 "Hg10 mi
4:15 PM66 °FOvercast.9 mph64%30.17 "Hg10 mi
3:55 PM64 °FPartly sunny.12 mph68%30.17 "Hg10 mi
3:35 PM66 °FBroken clouds.7 mph64%30.17 "Hg10 mi
3:15 PM63 °FBroken clouds.9 mph77%30.17 "Hg10 mi
2:55 PM64 °FScattered clouds.8 mph68%30.17 "Hg10 mi
2:35 PM63 °FPartly sunny.7 mph77%30.16 "Hg10 mi
2:15 PM61 °FBroken clouds.8 mph77%30.15 "Hg10 mi
Weather by CustomWeather, © 2014

See weather overviewHow to use our weather pages